Other Surface Observations
Issued by NWS

Home | Current Version | Previous Version | Text Only | Print | Product List | Glossary On
Versions: 1 2 3 4 5 6 7 8 9 10 11 12 13 14 15 16 17 18 19 20 21 22 23 24 25 26 27 28 29 30 31 32 33 34 35 36 37 38 39 40 41 42 43 44 45 46 47 48 49 50
821
SXUS52 KTAE 240419
OSOTAE
OSOTAE
North Florida/South Alabama/Southwest Georgia Weather Roundup
National Weather Service Tallahassee Florida
1200 AM EDT MON APR 24 2017

Note: "fair" indicates few or no clouds below 12,000 feet with no
significant weather and/or obstructions to visibility.

!FLZ017-115-028-034-025-240500
...North Florida...

CITY           SKY/WX    TMP DP  RH WIND       PRES   REMARKS
TALLAHASSEE    CLOUDY    65  63  93 CALM      29.81S
APALACHICOLA   CLOUDY    67  64  90 N6        29.81F
PERRY          CLOUDY    74  67  78 W10       29.78F
CROSS CITY     PTCLDY    68  64  88 S5        29.79F
JACKSONVILLE   MOCLDY    74  66  76 S8        29.77S
$$

!FLZ112-006-005-002-011-240500
...Florida Panhandle...

CITY           SKY/WX    TMP DP  RH WIND       PRES   REMARKS
MARIANNA       CLOUDY    63  53  70 NW9       29.82R
BONIFAY        FAIR      60  54  80 CALM      29.84R
PANAMA CITY NW FAIR      60  55  83 NW7       29.83S
TYNDALL AFB    MOCLDY    64  58  82 N5        29.82F
TYND DRONE APT FAIR      63  60  90 N5        29.82S
DE FUNIAK SPR  FAIR      57  51  79 NW7       29.86S
EGLIN AFB      PTCLDY    59  50  72 NW10      29.85S
DESTIN         CLEAR     63  55  75 N14G24    29.85S
HURLBURT       NOT AVBL
CRESTVIEW      PTCLDY    57  51  80 NW6       29.87F
PENSACOLA      CLEAR     59  50  72 NW13      29.87F
$$

!ALZ063-066-240500
...South Alabama...

CITY           SKY/WX    TMP DP  RH WIND       PRES   REMARKS
DOTHAN         PTCLDY    58  54  86 NW8       29.85F
OZARK CAIRNS   CLEAR     58  51  80 W7        29.83F
FT RUCKER HELI CLEAR     57  52  85 W7        29.83F
RUCKER HELI 3  FAIR      56  51  83 NW8       29.83F
RUCKER HELI 2  FAIR      57  53  85 NW5       29.82F
FLORALA APT    CLOUDY    56  51  84 CALM      29.87S
ANDALUSIA      MOCLDY    57  51  80 NW9       29.85F
TROY           PTCLDY    56  52  86 W8        29.85S
EUFALA         FAIR      57  52  83 W5        29.80F
MOBILE         CLOUDY    57  48  72 NW9       29.91F
$$

!GAZ120>161-240500
...Southwest and South Central Georgia...

CITY           SKY/WX    TMP DP  RH WIND       PRES   REMARKS
THOMASVILLE    RAIN      63  63 100 NW6       29.81S
BAINBRIDGE     PTCLDY    63  57  82 W3        29.81F
MOODY AFB      CLOUDY    69  62  79 W12       29.76S
VALDOSTA       CLOUDY    70  62  76 MISG      29.77S
MOULTRIE       CLOUDY    63  59  88 W5        29.81R
BLAKELY        CLEAR     61  52  72 CALM      29.82S
ALBANY         CLOUDY    62  60  93 SW3       29.82S
TIFTON         CLOUDY    62  62 100 NW7       29.78F
FITZGERALD     CLOUDY    65  65 100 NW3       29.81S
CORDELE        CLOUDY    64  63  96 W6        29.80S
AMERICUS       CLOUDY    61  61 100 W8        29.81F
HOMERVILLE     FAIR      72  61  68 SW5       29.77F
$$

!GMZ750-755-770-775-240500
...Coastal and Buoy Obs...

STATION/POSITION TIME  TEMP    WIND        PRES    VSBY  WAVE
                       AIR SEA DIR/SP/G                  HT/PER
                 (UTC) (F)     (DEG/KT/KT) (MB)    (MI)  (FT/S)
KEATON BEACH     0400   73     290/ 19/ 26 1008.1F
CEDAR KEY        0400   74     260/ 10/ 12 1009.6F
C TOWER          0400   69     290/ 18/ 20 1010.1R
APALACHICOLA BUO 0350   73 74  300/ 12/ 14 1009.6F         2/ 3
PANAMA CITY BUOY 0350   71 74  300/ 17/ 21 1010.1F         3/ 6
MOBILE BUOY      0400   66 74  340/ 19/ 23 1012.4
ORANGE BCH AL BU 0350   62 74  350/ 19/ 23 1011.2S         4/ 5
$$




USA.gov is the U.S. government's official web portal to all federal, state and local government web resources and services.